GLD166 SWPY-SIQJ

Flight info

Callsign GLD166
Flight time 0h 38m
Altitude 6500
Route 528S05509W 1507S05542W SIQJ
Aircraft C182/M-SDFGIRY/S

Departure

Time 2026-04-13 21:38
Airport Primavera do Leste Airport (SWPY)

Arrival

Time 2026-04-13 22:16
Airport Morro do Chapéu II Airport (SIQJ)
Time Latitude Longitude Altitude Speed Heading
2026-04-13 21:36 -15.56720 -54.32879 2155 ft 0 kts 82°
2026-04-13 21:36 -15.56719 -54.32874 2147 ft 3 kts 39°
2026-04-13 21:36 -15.56725 -54.32909 2154 ft 0 kts 268°
2026-04-13 21:37 -15.56726 -54.32919 2155 ft 7 kts 272°
2026-04-13 21:37 -15.56598 -54.32978 2157 ft 40 kts 351°
2026-04-13 21:37 -15.56248 -54.33055 2202 ft 55 kts 352°
2026-04-13 21:37 -15.55882 -54.33194 2294 ft 56 kts 347°
2026-04-13 21:38 -15.55401 -54.33370 2288 ft 86 kts 353°
2026-04-13 21:38 -15.54839 -54.33604 2558 ft 83 kts 335°
2026-04-13 21:38 -15.54404 -54.33997 2821 ft 86 kts 315°
2026-04-13 21:38 -15.53964 -54.34525 2912 ft 108 kts 319°
2026-04-13 21:39 -15.53754 -54.35314 2971 ft 130 kts 254°
2026-04-13 21:39 -15.54272 -54.36121 3088 ft 143 kts 231°
2026-04-13 21:39 -15.54833 -54.37022 3195 ft 153 kts 244°
2026-04-13 21:39 -15.54832 -54.38109 3270 ft 152 kts 285°
2026-04-13 21:40 -15.54687 -54.39199 3369 ft 155 kts 272°
2026-04-13 21:40 -15.54662 -54.40320 3468 ft 156 kts 273°
2026-04-13 21:40 -15.54644 -54.41448 3569 ft 157 kts 272°
2026-04-13 21:40 -15.54591 -54.42576 3681 ft 155 kts 277°
2026-04-13 21:41 -15.54480 -54.43670 3848 ft 151 kts 278°
2026-04-13 21:41 -15.54378 -54.44748 4012 ft 149 kts 277°
2026-04-13 21:41 -15.54271 -54.45809 4180 ft 147 kts 278°
2026-04-13 21:41 -15.54173 -54.46846 4346 ft 147 kts 277°
2026-04-13 21:42 -15.54073 -54.47907 4509 ft 148 kts 277°
2026-04-13 21:42 -15.53966 -54.48959 4677 ft 145 kts 278°
2026-04-13 21:42 -15.53867 -54.49994 4842 ft 144 kts 277°
2026-04-13 21:42 -15.53770 -54.51021 5014 ft 142 kts 277°
2026-04-13 21:43 -15.53677 -54.52036 5175 ft 143 kts 277°
2026-04-13 21:43 -15.53585 -54.53070 5341 ft 144 kts 277°
2026-04-13 21:43 -15.53486 -54.54119 5397 ft 151 kts 277°
2026-04-13 21:43 -15.53381 -54.55235 5405 ft 159 kts 277°
2026-04-13 21:44 -15.53269 -54.56396 5413 ft 164 kts 277°
2026-04-13 21:44 -15.53152 -54.57580 5415 ft 165 kts 277°
2026-04-13 21:44 -15.53039 -54.58767 5415 ft 166 kts 277°
2026-04-13 21:44 -15.52922 -54.59956 5417 ft 166 kts 277°
2026-04-13 21:45 -15.52807 -54.61147 5418 ft 167 kts 277°
2026-04-13 21:45 -15.52694 -54.62346 5417 ft 167 kts 277°
2026-04-13 21:45 -15.52582 -54.63545 5424 ft 167 kts 277°
2026-04-13 21:45 -15.52469 -54.64752 5424 ft 168 kts 277°
2026-04-13 21:46 -15.52353 -54.65931 5418 ft 165 kts 277°
2026-04-13 21:46 -15.52231 -54.67125 5429 ft 169 kts 277°
2026-04-13 21:46 -15.52108 -54.68330 5422 ft 167 kts 277°
2026-04-13 21:46 -15.51989 -54.69519 5425 ft 165 kts 277°
2026-04-13 21:47 -15.51866 -54.70726 5424 ft 170 kts 277°
2026-04-13 21:47 -15.51742 -54.71938 5422 ft 167 kts 277°
2026-04-13 21:47 -15.51614 -54.73153 5430 ft 171 kts 278°
2026-04-13 21:47 -15.51486 -54.74381 5425 ft 171 kts 277°
2026-04-13 21:48 -15.51358 -54.75607 5426 ft 171 kts 277°
2026-04-13 21:48 -15.51232 -54.76826 5426 ft 170 kts 277°
2026-04-13 21:48 -15.51105 -54.78036 5425 ft 168 kts 277°
2026-04-13 21:48 -15.50980 -54.79243 5422 ft 168 kts 277°
2026-04-13 21:49 -15.50860 -54.80429 5418 ft 166 kts 278°
2026-04-13 21:49 -15.50743 -54.81611 5423 ft 165 kts 277°
2026-04-13 21:49 -15.50622 -54.82802 5424 ft 167 kts 278°
2026-04-13 21:49 -15.50503 -54.84000 5421 ft 166 kts 277°
2026-04-13 21:50 -15.50381 -54.85187 5418 ft 165 kts 278°
2026-04-13 21:50 -15.50262 -54.86368 5422 ft 165 kts 277°
2026-04-13 21:50 -15.50143 -54.87561 5417 ft 167 kts 277°
2026-04-13 21:50 -15.50023 -54.88751 5422 ft 166 kts 278°
2026-04-13 21:51 -15.49898 -54.89943 5425 ft 168 kts 278°
2026-04-13 21:51 -15.49771 -54.91154 5427 ft 169 kts 278°
2026-04-13 21:51 -15.49643 -54.92363 5429 ft 169 kts 277°
2026-04-13 21:51 -15.49510 -54.93568 5413 ft 166 kts 278°
2026-04-13 21:52 -15.49378 -54.94772 5430 ft 171 kts 278°
2026-04-13 21:52 -15.49251 -54.95981 5422 ft 169 kts 277°
2026-04-13 21:52 -15.49120 -54.97187 5423 ft 167 kts 278°
2026-04-13 21:52 -15.48985 -54.98385 5428 ft 168 kts 278°
2026-04-13 21:53 -15.48855 -54.99597 5434 ft 170 kts 278°
2026-04-13 21:53 -15.48723 -55.00807 5418 ft 168 kts 278°
2026-04-13 21:53 -15.48592 -55.02002 5419 ft 165 kts 278°
2026-04-13 21:53 -15.48463 -55.03182 5427 ft 165 kts 278°
2026-04-13 21:54 -15.48337 -55.04374 5415 ft 165 kts 277°
2026-04-13 21:54 -15.48208 -55.05558 5423 ft 166 kts 278°
2026-04-13 21:54 -15.48078 -55.06752 5428 ft 167 kts 278°
2026-04-13 21:54 -15.47951 -55.07934 5429 ft 168 kts 278°
2026-04-13 21:55 -15.47822 -55.09136 5429 ft 168 kts 278°
2026-04-13 21:55 -15.47692 -55.10329 5433 ft 167 kts 277°
2026-04-13 21:55 -15.47554 -55.11531 5426 ft 168 kts 278°
2026-04-13 21:55 -15.47420 -55.12740 5424 ft 168 kts 278°
2026-04-13 21:56 -15.47289 -55.13939 5424 ft 167 kts 278°
2026-04-13 21:56 -15.47127 -55.15125 5405 ft 165 kts 288°
2026-04-13 21:56 -15.46473 -55.16081 5385 ft 164 kts 316°
2026-04-13 21:56 -15.45707 -55.16959 5386 ft 164 kts 313°
2026-04-13 21:57 -15.44984 -55.17872 5381 ft 162 kts 311°
2026-04-13 21:57 -15.44261 -55.18775 5381 ft 163 kts 312°
2026-04-13 21:57 -15.43530 -55.19682 5393 ft 164 kts 312°
2026-04-13 21:57 -15.42802 -55.20590 5391 ft 164 kts 312°
2026-04-13 21:58 -15.42090 -55.21487 5398 ft 164 kts 312°
2026-04-13 21:58 -15.41351 -55.22408 5385 ft 164 kts 312°
2026-04-13 21:58 -15.40620 -55.23320 5388 ft 166 kts 312°
2026-04-13 21:58 -15.39887 -55.24237 5385 ft 166 kts 312°
2026-04-13 21:59 -15.39149 -55.25156 5401 ft 168 kts 312°
2026-04-13 21:59 -15.38418 -55.26082 5398 ft 165 kts 312°
2026-04-13 21:59 -15.37683 -55.27006 5394 ft 167 kts 312°
2026-04-13 21:59 -15.36941 -55.27940 5396 ft 168 kts 312°
2026-04-13 22:00 -15.36206 -55.28863 5394 ft 168 kts 312°
2026-04-13 22:00 -15.35477 -55.29785 5382 ft 163 kts 312°
2026-04-13 22:00 -15.34750 -55.30697 5392 ft 166 kts 312°
2026-04-13 22:00 -15.34007 -55.31627 5387 ft 168 kts 312°
2026-04-13 22:01 -15.33263 -55.32558 5383 ft 166 kts 313°
2026-04-13 22:01 -15.32575 -55.33516 5391 ft 167 kts 308°
2026-04-13 22:01 -15.31898 -55.34502 5400 ft 169 kts 308°
2026-04-13 22:01 -15.31209 -55.35496 5395 ft 171 kts 308°
2026-04-13 22:02 -15.30523 -55.36483 5384 ft 166 kts 308°
2026-04-13 22:02 -15.29851 -55.37444 5387 ft 164 kts 309°
2026-04-13 22:02 -15.29187 -55.38407 5374 ft 164 kts 308°
2026-04-13 22:02 -15.28527 -55.39364 5384 ft 164 kts 308°
2026-04-13 22:03 -15.27860 -55.40328 5386 ft 165 kts 308°
2026-04-13 22:03 -15.27222 -55.41326 5378 ft 168 kts 301°
2026-04-13 22:03 -15.26725 -55.42422 5385 ft 167 kts 297°
2026-04-13 22:03 -15.26234 -55.43520 5391 ft 170 kts 297°
2026-04-13 22:04 -15.25740 -55.44632 5389 ft 173 kts 297°
2026-04-13 22:04 -15.25248 -55.45741 5375 ft 166 kts 297°
2026-04-13 22:04 -15.24770 -55.46820 5370 ft 164 kts 297°
2026-04-13 22:04 -15.24295 -55.47885 5380 ft 164 kts 297°
2026-04-13 22:05 -15.23808 -55.48973 5383 ft 168 kts 297°
2026-04-13 22:05 -15.23321 -55.50062 5381 ft 165 kts 298°
2026-04-13 22:05 -15.22833 -55.51147 5311 ft 166 kts 297°
2026-04-13 22:05 -15.22347 -55.52230 5234 ft 165 kts 297°
2026-04-13 22:06 -15.21864 -55.53312 5173 ft 166 kts 296°
2026-04-13 22:06 -15.21361 -55.54420 5091 ft 172 kts 298°
2026-04-13 22:06 -15.20771 -55.55492 5022 ft 170 kts 304°
2026-04-13 22:06 -15.20148 -55.56519 4953 ft 167 kts 307°
2026-04-13 22:07 -15.19412 -55.57445 4882 ft 168 kts 314°
2026-04-13 22:07 -15.18659 -55.58353 4809 ft 168 kts 313°
2026-04-13 22:07 -15.17899 -55.59269 4741 ft 168 kts 314°
2026-04-13 22:07 -15.17134 -55.60185 4665 ft 167 kts 314°
2026-04-13 22:08 -15.16379 -55.61099 4598 ft 167 kts 313°
2026-04-13 22:08 -15.15622 -55.62011 4515 ft 166 kts 314°
2026-04-13 22:08 -15.14857 -55.62906 4445 ft 166 kts 314°
2026-04-13 22:08 -15.14082 -55.63795 4371 ft 166 kts 316°
2026-04-13 22:09 -15.13268 -55.64633 4295 ft 165 kts 319°
2026-04-13 22:09 -15.12425 -55.65449 4219 ft 166 kts 320°
2026-04-13 22:09 -15.11567 -55.66255 4147 ft 168 kts 321°
2026-04-13 22:09 -15.10700 -55.67065 4081 ft 169 kts 320°
2026-04-13 22:10 -15.09826 -55.67888 4008 ft 170 kts 320°
2026-04-13 22:10 -15.08955 -55.68709 3935 ft 168 kts 321°
2026-04-13 22:10 -15.08069 -55.69527 3888 ft 172 kts 321°
2026-04-13 22:10 -15.07142 -55.70343 3818 ft 175 kts 326°
2026-04-13 22:11 -15.06101 -55.70998 3747 ft 173 kts 333°
2026-04-13 22:11 -15.05057 -55.71603 3641 ft 168 kts 337°
2026-04-13 22:11 -15.04073 -55.71995 3534 ft 138 kts 343°
2026-04-13 22:11 -15.03262 -55.72308 3414 ft 113 kts 343°
2026-04-13 22:12 -15.02583 -55.72611 3307 ft 101 kts 339°
2026-04-13 22:12 -15.01969 -55.72904 3211 ft 94 kts 340°
2026-04-13 22:12 -15.01350 -55.73187 3143 ft 105 kts 343°
2026-04-13 22:12 -15.00603 -55.73446 3092 ft 119 kts 345°
2026-04-13 22:13 -14.99810 -55.73675 3028 ft 111 kts 348°
2026-04-13 22:13 -14.99323 -55.73793 2976 ft 105 kts 351°
2026-04-13 22:13 -14.98630 -55.73980 2902 ft 107 kts 343°
2026-04-13 22:13 -14.97907 -55.74282 2801 ft 115 kts 335°
2026-04-13 22:14 -14.97534 -55.74967 2679 ft 107 kts 287°
2026-04-13 22:14 -14.97286 -55.75601 2593 ft 84 kts 297°
2026-04-13 22:14 -14.97102 -55.76113 2521 ft 73 kts 296°
2026-04-13 22:14 -14.96930 -55.76590 2408 ft 70 kts 295°
2026-04-13 22:15 -14.96776 -55.77066 2283 ft 72 kts 296°
2026-04-13 22:15 -14.96540 -55.77524 2024 ft 72 kts 309°
2026-04-13 22:15 -14.96271 -55.77982 1758 ft 77 kts 300°
2026-04-13 22:15 -14.96066 -55.78498 1472 ft 78 kts 294°
2026-04-13 22:16 -14.95958 -55.79038 1214 ft 71 kts 284°
2026-04-13 22:16 -14.95889 -55.79514 1067 ft 63 kts 274°
2026-04-13 22:16 -14.95848 -55.79916 1066 ft 51 kts 279°
2026-04-13 22:16 -14.95810 -55.80254 1092 ft 46 kts 276°
2026-04-13 22:17 -14.95778 -55.80572 1117 ft 36 kts 276°
2026-04-13 22:17 -14.95735 -55.80635 1121 ft 5 kts 60°
2026-04-13 22:17 -14.95737 -55.80631 1121 ft 0 kts 186°